sat.trackr.live / text

‹ back to catalog

ONEWEB-0719

NORAD 55179 · 2023-004AR

PAYLOAD ACTIVE UNKNOWN

§ Identity

Operator
Country
UK
Launch date
2023-01-10
Launch site
AFETR
Launch vehicle
Mass (kg)
RCS (m²)

Purposes: comms

External: N2YO · Heavens-Above · Gunter

§ Orbital elements

Epoch: 2026-09-20T04:28:26.619744Z

Period
109.29 min
Inclination
87.9213°
Eccentricity
0.0002017
Mean motion
13.17648555 rev/d
Perigee alt
1,192.2 km
Apogee alt
1,195.2 km
Semi-major
7,571.9 km
B*
-5.3486e-4
RAAN
346.9808°
Arg perigee
97.6044°
Mean anomaly
262.5317°
Rev number
18,009

§ Raw data

ONEWEB-07191 55179U 23004AR  26263.18641921 -.00000195  00000+0 -53486-3 0  99922 55179  87.9213 346.9808 0002017  97.6044 262.5317 13.17648555180096

JSON: /api/v1/satellites/55179 · /tle

For live sub-satellite position, see the globe view (requires WebGL).

§ Visibility from observer

Set your observer location to see the next 7 days of passes ≥ 10°. The values pass through the URL so the page stays shareable.

No JS? Fill the form by hand. The geolocation button needs JavaScript.